Theta_e
316 319 318 318 318 317 315 314 316 319 318 320 324 325 324 321 319 317 317 317 313 313 318 315 317 317 315 316 309 303 303 304 303 303 301 300 299 298 298 297 296 296 294 294 293 293 294 295 296 297 298 299 301 303 305 307 308 308 311 313 311 311 314 316 316 316 315 313 312 311 309 306 304 305 306 305 303 303 303 304 304 305 305 305 306 306
313 318 319 318 317 315 314 313 314 316 316 317 318 319 320 319 317 314 314 316 313 314 319 316 317 319 317 315 306 303 307 305 303 303 301 300 299 298 298 297 296 296 294 293 293 293 293 294 294 295 297 298 299 300 302 303 303 305 308 308 308 310 313 314 313 314 312 310 310 307 304 303 302 302 303 301 300 301 301 301 301 301 301 302 302 302
316 319 320 317 315 315 314 313 312 313 313 315 316 315 317 317 317 317 314 314 313 314 320 318 317 318 317 309 304 303 304 302 300 301 301 300 299 298 297 296 296 296 295 293 292 292 292 292 293 294 294 295 296 297 300 301 302 303 304 304 306 308 309 309 310 310 308 306 306 304 302 302 300 298 299 298 298 299 299 299 299 299 299 300 300 300
322 324 320 315 315 315 315 314 313 313 312 314 315 315 317 317 319 322 317 315 314 312 316 317 315 317 314 307 304 301 301 300 299 300 300 299 298 297 296 295 295 295 294 293 292 291 291 291 292 292 293 294 295 297 298 300 302 302 302 303 304 305 305 305 305 305 304 303 302 301 300 299 298 296 297 298 297 297 298 297 298 298 298 298 298 299
323 322 315 313 315 315 316 315 314 315 315 317 317 315 317 318 319 321 318 316 317 314 313 314 317 322 318 313 309 303 300 301 300 299 299 298 297 296 295 294 294 293 293 292 292 290 290 290 291 291 291 292 293 295 296 298 300 301 302 302 302 302 302 303 302 302 302 302 301 300 299 299 298 297 297 296 294 294 294 294 294 295 296 297 297 297
322 318 314 317 316 314 317 317 318 319 318 321 321 317 316 318 320 320 317 318 322 322 314 311 321 332 326 318 312 304 303 302 301 301 300 298 298 297 297 295 294 293 292 291 291 290 289 289 290 290 290 291 292 293 294 297 299 300 301 301 302 301 301 301 301 301 302 301 301 300 300 298 295 292 291 290 289 289 290 290 290 291 292 293 294 294
320 314 314 320 319 317 318 319 319 318 319 322 323 318 314 315 319 320 319 320 325 324 314 309 318 329 328 323 313 305 305 304 301 302 300 299 299 298 297 296 295 294 293 291 290 289 289 289 289 289 290 290 291 292 294 297 299 300 301 301 301 301 301 301 301 301 302 301 300 299 297 293 290 288 287 287 287 287 288 288 288 288 288 289 290 290
318 314 314 318 321 319 318 320 318 315 321 325 320 318 318 316 320 322 320 321 323 320 316 315 317 320 326 324 310 304 308 306 302 302 301 300 299 298 297 296 295 294 293 293 291 289 288 288 288 288 289 290 290 291 293 295 297 298 299 300 300 300 300 300 300 300 300 300 298 296 293 290 288 288 287 287 287 287 288 288 288 287 287 288 288 288
315 317 319 317 318 318 318 322 319 314 323 324 314 315 319 318 320 321 320 321 318 316 321 323 317 317 325 322 309 305 310 310 307 305 303 301 299 299 297 295 295 294 292 291 291 289 288 288 288 288 289 289 289 290 291 293 294 296 297 298 298 298 298 297 297 297 297 296 295 293 291 289 288 288 287 287 288 287 288 288 287 287 287 287 287 287
313 314 316 318 319 320 320 319 315 316 321 316 309 313 315 314 317 318 320 322 318 318 326 326 317 318 326 324 314 310 314 315 310 306 303 301 300 299 298 296 294 294 292 290 289 288 288 288 288 288 288 288 288 288 289 290 292 293 294 295 295 294 294 294 294 294 294 293 293 291 290 289 288 288 288 288 288 287 288 288 287 287 287 287 287 287
312 308 311 316 318 319 317 311 308 313 315 310 313 318 317 317 319 318 320 320 319 324 326 321 316 316 321 326 320 314 317 317 312 308 304 301 301 300 298 296 294 294 293 291 289 288 288 288 287 288 288 288 287 287 288 289 290 291 292 292 292 291 291 291 291 291 291 290 290 289 289 288 288 288 288 288 288 287 288 287 287 287 287 287 287 286
312 311 312 314 313 314 315 311 308 308 308 313 322 323 320 321 319 319 321 319 322 329 322 313 313 314 318 325 322 315 314 312 310 309 305 301 301 300 298 297 295 294 294 292 290 288 287 287 287 287 287 287 287 287 287 288 289 290 290 291 291 289 289 289 289 289 289 289 289 288 288 288 288 288 288 288 287 287 287 287 287 287 287 287 286 286
316 317 315 311 309 312 319 317 312 310 310 316 323 323 325 327 324 325 325 320 323 325 315 309 312 314 316 321 320 317 315 309 306 307 304 301 301 299 298 296 295 295 294 293 292 289 287 287 287 287 287 287 287 287 287 287 288 289 289 290 289 288 288 288 288 289 288 288 288 288 288 288 288 288 288 288 287 287 287 287 287 287 286 286 286 286
319 318 314 312 312 313 319 320 317 317 315 316 322 325 328 331 331 332 327 318 318 317 310 306 311 314 315 316 316 314 311 305 302 304 304 301 300 299 297 295 295 295 294 294 293 290 287 287 287 287 287 286 286 287 287 287 288 288 288 289 288 288 288 288 288 288 288 288 288 288 288 288 288 288 288 288 287 287 287 287 287 286 286 286 285 285
323 322 316 316 316 314 315 318 320 320 316 315 320 321 323 329 331 330 327 324 321 317 311 307 311 320 319 313 308 305 302 299 300 302 302 301 300 299 297 295 294 294 294 294 293 290 288 288 287 287 287 286 286 286 287 287 288 288 288 288 288 288 288 288 288 288 288 288 288 288 288 288 288 288 288 288 287 287 287 287 287 287 286 286 285 285
320 324 318 312 312 313 314 315 316 318 316 314 314 317 321 325 325 320 317 319 318 318 316 312 313 320 316 307 301 299 299 298 300 301 301 301 300 298 296 295 294 294 293 293 293 290 288 288 288 287 287 286 286 287 287 287 288 288 288 288 288 288 288 288 288 288 288 288 288 288 288 288 288 288 288 288 288 288 287 287 287 287 287 286 286 285
319 321 314 310 311 311 312 312 312 316 318 314 314 320 319 317 322 322 312 308 311 318 319 315 316 317 313 310 305 301 302 301 300 301 300 299 299 297 296 294 293 293 293 292 292 290 288 288 288 287 287 286 286 287 287 287 288 288 288 288 288 288 288 288 288 288 288 288 288 288 288 288 288 288 288 288 288 288 288 287 287 287 287 287 286 286
325 322 313 312 314 309 306 310 311 311 314 317 319 321 314 311 319 322 317 315 315 320 320 316 317 316 315 316 309 304 307 306 301 300 299 298 298 298 296 295 294 293 292 292 290 288 288 289 288 287 287 287 287 287 287 287 288 288 288 288 288 288 288 288 288 288 288 288 288 288 288 288 288 288 288 288 288 288 288 288 287 287 287 287 287 286
323 323 315 311 313 310 307 312 314 310 310 315 318 315 313 318 320 316 318 322 320 321 323 318 314 313 315 317 314 310 312 310 302 299 299 298 298 297 296 295 294 293 292 291 291 289 288 288 288 288 287 287 287 287 287 287 287 288 288 288 288 288 288 288 288 288 288 288 288 288 288 288 288 288 288 288 288 288 288 288 287 287 287 287 286 286
319 322 320 311 309 311 310 314 318 314 311 312 312 311 313 319 321 317 318 320 320 322 323 320 315 315 316 316 317 316 313 309 304 300 299 299 298 297 297 295 294 294 292 291 291 289 288 288 289 288 287 287 287 287 287 287 287 287 288 288 288 288 288 288 288 288 288 288 288 288 288 288 288 288 288 288 288 288 288 288 287 287 287 286 286 286
318 320 321 313 309 312 315 316 317 316 314 314 314 314 314 314 315 317 315 315 320 323 324 322 318 317 317 314 316 319 312 305 304 303 300 298 298 297 297 296 295 294 292 291 291 289 288 288 289 288 287 287 287 287 287 287 287 287 288 288 288 288 288 287 287 288 288 287 288 288 288 288 288 288 288 288 288 288 287 287 287 287 286 286 286 285
320 319 322 317 312 316 318 313 310 312 313 314 316 316 316 315 316 319 317 314 315 318 321 321 318 318 317 310 311 315 310 304 302 303 301 299 298 298 297 296 295 294 293 291 290 289 288 288 289 288 287 287 287 287 287 287 287 287 287 288 288 288 287 287 287 288 287 287 287 288 288 288 288 288 288 288 287 287 287 287 286 286 286 285 285 284
319 320 322 319 316 316 313 306 303 307 309 312 315 316 315 316 319 321 320 316 314 313 314 315 317 316 312 305 306 309 307 304 301 300 300 299 298 297 296 296 295 294 293 291 290 289 288 289 289 288 288 287 287 287 287 287 287 287 287 287 287 287 287 288 288 287 287 287 287 287 287 287 287 288 287 287 287 287 286 286 286 285 285 285 284 283
317 319 320 318 317 314 309 305 304 305 308 312 314 314 315 316 317 318 317 316 317 315 314 314 316 315 309 304 304 304 303 303 301 300 301 299 298 298 297 296 296 295 294 292 290 288 288 289 289 288 288 288 288 288 287 287 287 287 287 287 287 287 287 287 287 287 287 287 287 287 287 287 287 287 287 286 286 286 286 285 285 284 284 283 283 282
317 320 319 318 319 317 313 312 310 310 311 314 314 313 314 316 315 314 313 313 315 316 316 315 316 316 310 304 303 302 302 304 301 299 299 300 299 298 297 296 296 295 294 293 291 289 288 288 288 288 288 288 288 288 288 288 287 287 287 287 287 287 288 288 287 287 287 288 288 287 287 287 286 286 286 286 286 286 285 284 284 283 283 282 282 281
317 318 318 319 320 318 318 318 318 316 314 313 312 312 312 313 314 315 315 314 315 315 315 314 315 315 309 305 306 305 304 307 305 300 299 300 299 298 297 297 296 295 295 293 292 290 289 288 288 288 288 288 288 288 288 288 288 288 288 288 288 288 288 288 288 288 288 288 288 288 287 286 286 286 286 286 286 285 285 284 283 283 282 281 281 281
318 317 315 318 319 317 319 319 315 315 316 315 314 314 313 312 311 314 317 316 315 316 315 314 313 314 312 310 310 309 308 310 309 303 299 299 299 298 297 297 296 296 295 293 292 291 290 288 288 288 288 288 288 288 289 288 288 288 288 288 288 288 288 288 288 288 288 288 288 287 286 286 286 286 286 286 285 285 284 284 283 282 281 281 280 280
319 317 314 317 317 315 318 318 313 313 317 318 316 315 314 311 310 311 314 315 315 315 315 314 313 314 314 312 312 313 312 311 309 306 303 300 298 298 297 296 297 297 295 293 292 291 291 289 288 288 289 289 288 289 289 289 288 288 288 288 288 288 288 288 288 288 288 287 287 286 286 286 286 286 286 285 285 285 284 284 283 282 281 281 280 279
319 317 315 315 314 314 315 315 312 312 314 316 316 316 313 310 309 310 311 312 313 314 313 313 313 313 313 311 312 313 312 312 312 309 304 300 298 297 297 297 297 297 296 294 293 292 291 290 289 288 289 289 288 289 289 288 288 288 288 288 288 289 289 288 288 287 287 286 286 286 286 286 286 285 285 285 284 284 284 283 282 281 281 280 279 279
317 317 315 314 314 314 312 311 311 311 312 313 313 314 312 310 309 309 309 309 310 311 311 311 311 311 310 310 311 312 311 310 308 305 301 300 300 300 299 298 297 297 296 295 294 292 292 291 290 289 289 288 288 288 288 288 288 288 288 288 289 288 288 288 287 287 286 286 286 286 286 285 285 285 285 284 283 283 283 282 281 280 279 279 278 278
312 314 312 312 315 313 308 307 309 309 311 312 312 311 309 309 308 307 308 308 308 309 309 308 308 308 308 309 309 310 310 307 305 305 304 304 303 301 300 298 298 297 296 295 294 294 293 291 290 289 288 288 288 288 288 288 288 288 288 288 288 288 288 287 287 287 286 286 286 285 285 285 284 284 283 283 282 282 282 281 280 279 278 278 277 277
311 310 309 311 315 313 307 307 308 306 307 309 310 310 308 308 309 307 307 307 307 308 308 307 308 307 307 308 307 306 307 305 305 306 305 303 302 301 300 300 298 297 297 296 295 294 293 291 290 289 288 288 288 288 288 288 288 288 288 288 288 288 287 287 287 287 286 285 285 284 284 284 283 283 282 281 281 281 281 280 279 278 277 277 277 277
309 310 311 312 314 311 306 307 307 306 309 310 309 309 308 307 307 307 306 305 305 307 308 307 307 307 307 307 304 303 304 303 304 304 303 302 301 300 299 299 298 297 297 298 297 295 293 291 289 289 289 288 288 288 288 288 288 288 288 288 288 287 287 287 286 286 285 284 283 283 283 283 283 282 281 280 280 280 280 279 278 277 277 277 276 276
307 310 311 310 312 310 303 303 307 309 310 309 308 309 309 308 308 307 306 305 304 305 306 306 305 305 305 305 304 303 303 302 301 300 298 299 300 299 299 298 297 297 296 296 296 293 290 289 289 289 289 289 289 288 288 288 288 289 288 288 288 287 287 286 285 285 284 283 282 282 282 282 282 281 280 280 280 280 279 278 277 277 276 276 276 276
307 309 309 309 310 307 301 303 308 310 309 308 305 303 304 306 307 306 305 305 304 304 305 305 304 304 303 302 302 302 300 299 298 297 296 297 297 298 299 298 297 297 296 295 294 291 288 287 288 289 289 289 289 288 288 288 288 288 288 288 287 287 286 285 284 283 283 282 282 282 282 282 281 281 280 280 280 279 278 278 277 276 276 275 275 275
308 308 308 308 307 304 303 306 309 308 307 307 303 298 297 300 302 303 303 303 301 301 302 303 303 302 302 301 299 298 297 295 294 295 296 296 296 296 298 300 300 299 297 295 292 289 288 288 289 289 289 289 288 288 288 288 288 288 287 287 286 286 285 284 283 283 282 281 282 282 282 282 281 280 280 280 279 279 278 277 276 276 275 275 275 274
306 308 308 308 307 306 305 306 307 307 307 307 304 299 298 300 302 302 303 304 302 299 298 300 302 301 300 299 296 295 294 294 294 295 295 296 296 294 294 295 295 295 292 290 290 290 289 290 289 289 289 288 288 288 288 288 288 288 287 286 285 284 284 283 283 282 282 281 282 282 282 281 280 280 280 279 279 278 277 276 275 275 274 274 274 274
303 306 308 309 309 308 306 306 306 307 307 308 305 300 297 300 302 302 302 303 302 299 297 300 302 301 299 297 295 293 293 295 297 296 295 296 294 291 290 288 287 289 289 289 289 289 288 288 289 288 288 288 288 288 289 288 288 287 286 285 284 283 283 282 282 282 281 281 281 281 281 280 280 279 279 279 278 277 276 275 275 274 274 274 273 273
300 303 306 308 309 309 308 308 307 307 308 308 304 298 294 297 301 301 301 302 301 299 298 298 299 299 298 296 294 294 295 297 298 295 294 296 293 289 290 289 285 286 289 289 288 289 288 288 288 287 288 288 288 289 289 288 288 286 285 284 283 283 283 283 282 282 281 281 281 281 280 280 279 279 278 278 277 276 275 274 274 273 273 273 272 272
299 302 303 306 309 309 308 309 307 307 308 305 301 296 292 295 301 303 303 302 299 296 294 295 298 298 297 294 293 294 296 297 297 295 294 294 290 286 288 289 286 285 287 288 288 288 288 287 287 287 287 288 289 289 288 287 286 285 285 284 283 283 283 283 282 281 281 280 280 280 280 279 279 278 277 276 275 274 274 274 273 273 272 272 272 272
299 301 302 304 307 307 308 309 307 307 306 300 296 294 293 295 300 303 303 303 300 295 291 293 299 298 294 293 293 294 295 294 294 295 293 292 292 289 286 286 286 287 288 288 287 287 287 288 288 289 289 289 289 288 287 286 285 285 284 283 283 283 284 283 281 280 280 280 280 280 279 278 278 277 276 275 274 273 273 273 272 272 272 271 271 271
299 300 301 303 304 304 306 307 306 307 303 296 292 292 293 297 301 302 302 300 300 300 294 292 297 297 293 292 292 293 294 292 291 294 294 293 296 294 286 283 285 285 286 287 286 286 287 287 287 288 289 289 288 288 287 286 285 284 283 282 283 284 283 281 280 280 280 280 280 279 278 277 276 276 274 273 273 272 272 272 272 271 271 271 271 270
300 301 301 302 303 303 304 304 306 307 301 293 292 293 294 299 303 303 300 295 295 300 298 293 293 293 291 293 291 290 292 291 290 293 293 293 294 291 285 283 284 285 285 286 286 286 286 286 287 287 288 288 288 287 286 285 284 283 282 283 284 283 281 280 280 280 279 279 279 278 277 276 275 274 273 272 272 271 271 271 271 271 270 270 270 270
300 302 302 302 302 303 304 304 304 302 297 294 296 298 296 298 302 303 301 297 294 295 294 294 293 290 289 293 293 291 291 290 290 292 292 291 292 289 285 283 284 285 285 286 287 287 286 286 287 286 286 286 287 286 286 285 284 282 282 283 283 281 280 280 280 279 279 279 278 277 276 275 274 273 272 272 271 271 271 271 270 270 270 270 269 269
299 299 300 301 301 300 302 303 298 295 293 294 297 301 298 297 299 301 300 299 298 295 291 293 296 291 288 290 292 291 291 291 291 291 291 291 291 289 286 284 284 285 286 286 287 287 286 286 286 285 284 284 285 285 285 284 283 282 282 283 282 281 280 280 279 279 278 278 277 276 275 274 273 272 271 271 270 270 270 270 270 270 269 269 269 268
295 293 294 297 298 296 296 296 294 293 293 293 295 297 297 295 296 297 296 297 298 296 291 292 295 293 289 289 290 291 292 292 291 291 289 290 290 287 283 282 284 285 285 285 285 285 285 284 283 283 282 282 282 282 283 283 283 283 283 283 281 280 280 279 278 278 278 277 276 275 274 273 272 271 271 270 270 270 269 269 269 269 269 269 268 267
292 291 291 294 296 296 295 294 293 294 294 293 293 293 294 294 293 293 293 294 294 294 292 291 291 291 289 288 289 291 293 291 291 291 289 288 289 287 282 281 283 284 284 285 285 285 284 282 281 281 281 281 282 282 281 281 281 281 282 281 280 280 279 278 278 277 277 276 275 274 273 272 271 270 270 269 269 269 269 269 269 268 268 268 267 265
294 292 292 293 294 295 295 292 290 291 292 291 292 292 293 294 293 291 291 292 291 291 291 289 288 289 291 291 290 291 292 290 289 291 290 288 288 286 282 280 282 283 284 285 285 284 283 282 281 281 280 281 282 282 281 281 280 279 279 279 279 278 278 277 277 276 276 274 273 272 272 271 270 269 269 269 269 268 268 269 268 268 268 267 266 265
294 293 294 294 293 292 292 290 289 290 291 291 291 291 291 292 292 291 291 291 290 290 291 288 286 286 289 291 290 290 291 291 289 290 290 289 287 285 282 281 283 283 284 284 283 283 283 282 282 281 281 282 283 282 281 280 279 278 278 278 278 277 277 277 276 275 274 273 272 271 271 270 269 268 268 268 268 268 268 268 268 267 267 267 266 265
292 293 292 292 293 293 292 290 290 292 292 293 293 292 290 289 289 290 291 291 291 292 291 290 288 285 284 286 286 288 291 292 288 287 288 288 286 283 282 282 282 283 283 284 283 282 282 282 282 282 281 281 281 280 280 279 278 277 277 277 277 277 276 276 275 274 273 272 271 270 269 268 268 268 267 267 267 267 267 267 267 267 265 265 265 264
291 293 292 291 292 294 293 292 291 291 292 293 292 292 291 289 289 290 291 291 291 291 290 290 290 289 287 285 283 284 289 290 286 285 287 287 284 282 283 283 282 283 283 283 281 280 280 281 281 280 280 280 279 279 279 279 277 276 276 276 276 276 276 275 274 273 272 271 270 269 268 268 267 267 267 267 266 266 266 267 268 268 266 265 264 264
Wind_Speed
3 3 3 5 6 8 10 9 6 4 5 5 4 3 4 4 5 3 3 5 1 1 5 4 4 7 5 2 2 1 2 4 4 3 3 3 3 3 3 3 3 4 4 8 13 16 17 18 18 19 20 21 23 24 25 26 26 26 25 26 27 26 26 27 27 27 27 27 27 28 30 31 31 29 27 28 28 28 27 26 25 24 23 22 21 20
3 5 7 8 8 7 7 6 5 4 5 4 4 3 3 4 5 4 2 4 1 3 4 2 2 8 4 0 3 2 2 3 2 2 3 2 2 2 2 3 3 3 4 8 13 16 18 18 18 19 20 22 23 24 25 26 26 26 26 27 27 25 25 25 25 25 27 28 27 29 32 32 32 30 29 30 30 29 28 27 26 26 25 24 24 23
1 4 9 8 5 4 3 5 7 4 4 2 3 2 4 4 3 4 2 4 3 2 3 3 3 7 2 2 3 3 3 2 2 2 2 2 2 2 2 3 3 3 4 6 10 14 17 17 18 19 21 21 22 23 25 25 26 27 28 28 28 27 26 27 27 27 29 31 30 32 33 32 33 34 32 32 32 29 29 29 28 27 26 25 25 24
3 5 9 5 7 6 3 4 7 4 2 3 3 3 4 2 2 3 2 3 3 1 1 2 4 6 0 3 3 4 3 2 3 3 3 2 2 2 2 2 3 4 4 4 6 10 14 15 17 18 18 20 22 23 25 25 26 27 27 28 29 29 29 30 30 31 33 33 33 34 34 33 34 34 32 31 32 30 30 30 30 29 27 26 26 25
5 4 2 5 6 8 4 4 6 5 2 4 5 6 5 4 5 5 2 3 2 3 1 2 4 5 0 1 1 2 1 2 2 2 3 2 2 2 2 3 3 3 3 3 4 6 11 13 14 15 16 18 22 23 24 25 26 26 26 26 27 28 29 30 31 31 32 33 34 34 33 32 32 32 31 31 33 32 33 33 32 31 29 28 28 27
6 4 4 6 4 5 6 4 5 7 3 3 5 10 10 6 6 3 1 2 3 3 2 3 2 4 3 1 1 1 1 1 2 2 2 2 2 2 2 3 3 2 2 3 3 5 8 10 11 13 15 18 21 22 23 26 27 27 26 25 25 26 27 27 27 27 28 29 30 30 30 31 33 33 32 32 33 34 34 34 33 32 31 30 29 29
3 1 3 5 5 5 6 4 6 7 5 2 4 8 9 6 6 4 3 3 1 2 1 2 1 4 5 3 1 1 1 2 1 1 1 0 2 2 1 2 1 2 2 2 3 5 7 8 9 12 14 17 20 21 24 26 28 28 28 28 27 26 26 26 25 24 25 27 29 30 33 34 36 36 32 31 33 33 34 33 32 32 32 31 30 30
3 3 3 5 6 6 5 4 6 8 7 3 3 5 7 7 7 6 6 4 2 2 3 2 2 2 4 3 2 0 1 1 1 1 2 2 1 1 1 1 1 1 1 1 2 3 5 6 8 11 14 17 19 21 24 27 29 29 30 30 29 29 28 27 26 25 25 28 32 34 37 37 37 36 33 31 32 32 31 31 31 31 30 30 29 29
3 5 5 7 5 5 6 4 8 10 5 4 3 6 6 6 6 5 6 3 0 1 3 4 1 1 4 3 3 3 1 3 2 5 5 4 3 2 2 1 0 0 1 0 0 1 4 6 8 10 13 16 18 21 24 27 28 30 31 31 31 30 30 29 28 28 28 30 33 35 37 38 36 34 33 31 30 30 29 30 30 29 29 28 27 27
1 4 6 8 5 6 4 2 6 9 3 3 6 7 5 5 5 4 5 3 2 1 4 5 3 2 4 4 2 2 2 5 5 6 6 5 4 3 3 3 2 2 1 1 1 2 4 6 9 11 14 16 17 20 23 26 28 30 31 31 31 31 30 30 29 30 30 30 32 34 36 36 34 32 31 30 29 28 28 28 28 27 27 26 26 25
1 1 2 4 4 5 4 3 1 3 3 6 7 6 6 5 4 3 2 3 2 2 5 5 2 2 2 4 3 3 4 5 6 5 5 5 5 5 5 4 4 3 2 1 1 3 5 7 9 11 14 15 16 19 22 25 27 29 30 30 31 31 30 30 30 30 31 31 32 33 33 34 32 30 29 29 29 27 27 27 27 26 25 25 24 24
3 1 2 2 3 5 6 5 3 3 4 5 4 4 4 2 3 3 4 3 1 4 5 2 1 2 3 4 4 5 5 5 8 8 9 10 8 8 6 5 5 4 3 2 1 3 5 7 9 11 13 14 16 18 21 23 26 28 29 29 31 30 29 30 29 30 30 30 30 31 31 31 30 29 28 29 28 27 26 26 25 24 24 23 23 22
2 3 2 1 2 4 6 5 4 4 3 3 4 5 4 1 3 2 3 1 2 5 3 1 1 2 5 6 5 6 6 6 5 5 9 13 12 9 7 5 5 4 3 3 2 3 5 7 9 10 11 13 15 17 20 22 25 27 28 28 30 30 29 29 29 29 29 29 28 28 29 29 29 28 28 28 27 26 25 25 24 24 24 23 23 22
2 4 1 3 1 3 7 6 2 1 2 4 5 4 4 3 3 1 3 2 3 3 2 1 1 2 3 5 5 5 4 4 3 2 4 10 12 10 8 6 5 4 4 4 3 3 6 8 9 9 11 13 15 17 20 22 25 27 27 28 30 29 28 27 28 28 28 28 27 27 27 28 27 28 28 27 26 25 24 24 24 24 23 23 22 21
3 3 4 6 2 4 8 6 5 6 4 3 3 5 5 5 4 3 3 2 3 2 2 2 1 3 3 2 3 2 2 3 2 3 2 5 7 7 6 5 5 5 4 4 4 5 8 9 9 10 11 13 16 18 20 23 25 26 27 27 29 29 27 26 26 27 27 27 26 26 26 26 26 26 26 25 24 23 22 22 22 22 21 21 20 19
3 4 4 1 1 5 7 3 4 7 4 1 2 5 3 4 4 2 3 5 3 2 3 2 3 4 3 1 3 2 2 3 2 2 3 5 6 6 5 5 5 5 5 5 5 5 8 10 10 11 12 14 16 18 20 23 25 26 27 27 27 27 26 25 25 26 26 25 25 25 25 25 24 24 24 23 22 21 21 20 20 20 19 19 19 18
2 3 3 2 2 2 4 3 2 2 3 2 2 3 4 3 6 4 2 2 3 1 3 2 2 4 1 1 3 3 2 3 2 2 5 6 6 7 6 6 6 7 6 6 6 6 9 12 12 13 14 15 17 19 21 23 25 26 27 27 27 26 25 24 24 24 23 23 23 22 22 22 21 21 21 20 20 19 19 19 19 19 18 19 19 19
4 1 2 2 1 1 1 3 3 3 2 5 3 5 3 2 4 3 1 2 3 2 4 1 3 3 0 2 2 2 2 4 3 3 4 5 7 8 8 7 8 8 7 6 6 8 11 13 13 15 16 17 19 20 22 24 24 25 25 25 26 25 25 24 22 22 21 20 20 20 19 19 18 18 18 17 17 16 17 18 17 17 18 18 19 20
4 3 2 1 2 0 2 3 4 4 3 4 4 3 3 3 2 2 2 1 1 3 4 2 3 3 4 4 2 4 8 8 5 4 6 8 10 10 10 9 10 9 7 6 6 7 11 14 15 17 17 18 19 21 22 23 23 24 24 23 24 23 23 22 20 20 18 17 18 17 16 16 15 15 15 14 14 14 15 16 16 16 17 18 18 19
3 3 2 1 0 0 2 2 3 1 3 3 1 2 2 2 3 2 2 2 2 2 4 4 3 3 5 5 7 10 11 10 9 7 9 12 13 13 11 11 11 10 9 8 7 7 11 15 17 18 20 20 21 22 22 23 22 23 23 22 22 22 21 20 18 17 17 15 15 14 14 13 12 11 11 11 11 12 13 14 14 16 17 17 18 18
3 2 2 0 2 1 1 2 5 6 3 2 2 1 0 1 2 1 1 2 3 3 2 3 5 5 4 3 7 9 8 10 12 12 12 12 12 12 11 11 11 10 8 8 7 8 12 16 18 20 21 21 21 21 21 22 22 22 23 22 22 21 20 19 17 16 14 14 13 12 11 10 8 8 8 8 9 11 12 13 14 15 16 17 18 19
2 2 3 3 1 3 3 3 3 4 4 5 4 5 5 4 4 2 2 0 2 2 4 3 5 7 3 2 4 4 4 7 10 10 10 10 11 12 12 11 9 7 7 7 7 9 13 17 20 21 21 21 21 22 22 23 23 23 23 22 21 21 20 18 16 14 13 12 10 9 8 7 6 5 5 6 8 9 11 12 14 15 16 18 19 20
2 3 4 2 3 4 4 3 1 2 2 4 2 3 4 4 5 5 4 3 2 1 1 3 3 6 2 2 3 3 4 5 7 8 8 8 10 11 9 7 6 6 7 7 7 10 15 19 21 22 22 22 22 23 23 24 24 24 23 22 21 20 19 17 15 14 12 10 8 7 5 4 3 2 3 5 7 9 11 13 15 16 17 18 19 20
2 3 3 1 2 2 4 3 1 1 3 3 1 1 4 3 3 3 4 3 3 3 2 2 4 5 1 0 2 3 3 3 5 7 8 7 7 7 8 8 8 8 8 7 8 12 16 18 19 20 21 22 23 24 24 25 24 24 23 22 21 20 18 16 15 13 11 9 7 5 4 3 2 0 3 5 8 10 12 14 15 16 17 18 18 19
2 2 4 3 0 2 3 1 2 3 0 2 2 2 2 3 5 3 2 3 1 5 7 3 8 7 1 1 2 2 2 3 5 6 6 6 6 7 9 10 10 9 7 7 8 10 13 16 18 20 21 23 25 25 25 25 25 25 23 22 21 19 18 16 14 12 10 8 7 6 5 5 3 1 3 6 9 11 13 14 15 16 17 18 18 19
4 3 4 6 5 5 4 4 4 2 1 2 2 3 4 5 7 4 3 3 4 4 8 7 10 5 1 2 3 3 2 4 6 5 5 6 6 8 9 10 10 9 9 10 10 10 12 14 17 20 22 24 26 27 27 26 26 25 23 22 20 19 17 15 14 12 11 9 8 8 7 5 3 2 5 7 10 12 14 15 17 17 18 19 19 20
4 2 4 6 7 7 6 6 5 4 5 3 4 6 6 7 8 6 4 4 5 4 5 11 9 4 4 4 4 5 4 5 5 4 5 6 7 7 8 8 8 8 9 9 9 9 10 12 16 20 23 25 26 26 27 27 26 25 24 22 20 19 17 15 14 12 11 11 10 10 8 5 2 3 6 8 11 13 15 16 18 19 20 20 21 21
4 2 5 6 7 6 5 6 6 5 5 7 7 8 8 7 8 8 7 7 6 5 9 9 5 5 10 6 6 7 6 6 6 5 6 7 7 7 6 6 7 7 8 8 8 9 10 11 13 18 22 25 26 26 27 27 26 26 25 22 21 19 17 15 14 12 12 12 12 10 7 4 2 4 6 9 11 13 15 17 19 20 20 21 21 22
4 3 4 5 6 5 4 4 6 5 4 6 7 9 10 9 10 11 12 11 8 7 13 5 8 9 10 4 8 9 7 7 7 6 6 5 5 6 6 7 9 10 9 9 10 11 11 10 13 19 23 25 26 26 27 27 27 26 25 23 21 18 17 15 14 13 13 13 12 9 6 4 3 5 7 9 10 12 15 17 18 19 20 20 21 21
3 2 2 4 5 4 3 3 5 5 3 3 6 10 10 9 11 12 13 13 10 10 13 4 3 10 7 6 8 8 5 6 4 3 4 5 5 7 8 9 9 9 9 10 10 9 9 11 16 20 22 23 25 27 28 28 28 28 26 23 21 18 17 15 14 14 14 13 11 9 6 5 5 6 7 9 10 12 14 16 18 18 19 20 20 20
1 1 2 3 3 3 1 3 3 3 3 3 8 13 10 8 10 11 12 9 6 9 12 5 5 11 6 6 7 5 3 4 2 3 5 6 7 7 7 8 8 8 8 8 8 8 9 11 15 18 20 23 27 29 30 30 30 29 26 23 21 19 17 16 15 15 14 13 10 8 6 5 6 7 8 9 11 12 14 16 17 18 19 19 19 20
2 1 2 3 2 3 1 5 4 4 3 3 12 18 15 10 9 9 7 7 9 10 10 6 8 11 5 5 5 5 4 4 5 6 6 6 7 7 7 8 8 8 8 7 8 9 9 10 14 18 22 25 28 30 32 32 31 28 26 24 22 20 18 17 17 16 14 12 10 8 6 6 7 8 9 10 11 13 15 17 18 18 19 19 19 19
4 4 2 3 3 2 1 6 5 5 2 6 13 15 14 12 10 7 5 8 11 10 7 8 10 8 3 5 5 5 5 6 7 7 7 6 6 6 7 8 7 7 7 8 9 9 10 12 17 22 25 27 30 33 35 34 32 29 27 25 22 20 19 19 18 16 14 12 10 8 7 7 8 8 9 11 12 14 16 17 18 18 19 19 19 20
3 5 3 3 3 0 1 5 5 3 6 8 5 3 7 11 12 12 9 9 10 9 8 8 5 2 4 6 7 8 8 6 6 6 5 5 5 5 6 7 7 8 8 9 8 8 11 14 18 22 25 27 30 32 32 31 30 28 26 24 22 21 21 20 18 16 14 12 10 8 8 8 8 9 11 12 14 16 17 18 19 19 19 20 20 20
5 4 3 2 2 1 2 4 3 7 9 6 3 3 2 6 8 9 8 8 11 11 10 8 5 5 7 8 8 8 7 5 3 4 5 5 6 6 6 7 8 9 8 8 7 9 13 16 18 20 23 25 26 27 27 27 27 26 25 24 23 22 21 20 18 16 14 12 11 9 8 9 10 10 12 13 15 17 18 18 19 19 19 20 20 21
6 5 2 2 3 2 3 5 7 5 4 3 3 2 1 3 5 2 4 7 9 11 11 10 10 10 10 10 7 3 3 3 3 4 6 7 7 7 8 8 8 8 7 7 7 10 13 15 17 19 20 22 24 25 26 27 26 25 25 24 24 23 22 20 18 16 14 13 11 10 9 10 11 12 13 14 16 17 18 18 18 18 19 20 21 22
6 6 4 3 4 3 3 6 5 4 6 7 5 2 3 5 6 5 4 7 8 8 9 9 11 12 12 8 3 2 2 2 5 5 7 9 9 9 9 8 7 6 7 8 9 11 11 12 14 16 17 20 23 25 26 27 26 26 25 25 24 23 21 20 18 17 16 14 12 10 10 11 12 13 14 15 17 18 18 18 18 18 19 20 22 23
2 5 6 5 5 5 4 5 4 4 9 10 5 2 2 4 6 7 3 5 5 7 11 11 12 14 11 5 3 4 4 2 5 7 6 8 8 7 6 8 9 9 10 10 10 10 9 9 11 14 17 19 22 24 25 26 27 26 26 26 25 24 22 21 20 19 17 15 12 11 12 12 13 14 15 16 17 18 18 18 18 19 19 20 22 23
1 0 2 4 5 5 6 6 6 7 6 4 4 3 1 4 7 8 3 5 5 7 11 12 12 12 9 6 6 5 5 1 6 7 4 6 7 6 5 7 10 12 13 12 11 10 10 10 12 14 17 20 23 25 25 27 28 28 28 27 26 25 24 24 22 20 17 15 13 12 12 13 13 14 15 16 17 17 17 18 18 18 19 20 22 24
2 1 2 4 6 7 8 6 5 4 3 2 6 4 3 4 8 7 3 7 5 6 7 9 11 11 7 6 6 5 5 6 6 6 4 4 5 7 9 8 9 13 14 12 10 10 11 13 15 17 20 22 24 26 27 27 28 28 28 28 27 27 27 26 23 19 16 14 13 12 12 13 14 15 16 16 17 16 17 17 17 18 19 21 22 23
1 1 2 5 7 9 10 7 3 3 3 4 6 7 6 4 6 2 7 6 4 7 8 8 10 9 6 8 6 5 7 7 4 1 2 4 5 6 10 11 10 11 12 12 12 13 14 17 19 19 21 23 24 25 27 28 28 29 29 28 29 29 28 24 21 18 16 14 13 12 13 14 14 15 15 15 16 16 16 16 17 18 19 21 22 24
2 1 1 4 5 5 6 4 3 4 3 6 5 4 5 4 1 4 7 4 6 8 8 7 8 6 7 8 8 7 7 5 3 2 2 4 4 4 6 9 8 8 9 10 13 15 18 20 21 21 21 23 25 26 27 29 30 30 29 29 30 29 26 22 20 19 17 15 13 13 14 14 14 15 15 15 16 16 16 16 16 18 19 21 22 23
5 4 2 4 4 2 2 3 4 5 3 10 9 1 1 4 5 4 3 3 4 6 6 7 7 6 7 8 8 9 7 3 3 4 4 4 4 3 5 9 11 12 12 13 15 19 21 22 23 24 23 24 26 28 29 31 32 31 30 31 31 27 23 22 21 19 16 15 14 14 14 14 14 15 14 15 15 16 16 16 16 17 18 20 22 23
4 4 3 4 3 3 4 6 4 1 5 11 10 4 5 6 5 5 5 3 3 3 5 6 6 7 8 8 8 9 7 5 5 6 5 6 6 5 6 9 12 13 15 17 19 22 24 25 25 25 25 25 28 30 32 34 33 32 32 32 29 25 23 23 21 19 17 15 15 14 14 14 14 14 14 14 15 16 16 16 17 17 18 19 20 22
4 4 5 3 3 4 5 5 2 1 5 9 5 4 7 7 4 6 6 4 3 4 5 5 6 7 9 9 8 7 6 6 7 7 6 6 6 7 8 11 14 16 18 19 20 22 26 27 25 25 26 27 29 32 34 35 34 33 33 31 28 25 25 23 21 19 17 16 15 15 15 15 14 14 14 14 14 15 15 16 17 17 18 18 19 21
2 2 3 2 2 3 2 2 1 0 4 8 6 3 5 5 3 5 5 4 5 5 6 6 7 8 8 8 7 6 6 8 8 7 7 7 6 8 9 11 14 17 17 18 19 22 25 24 22 23 26 27 29 32 34 35 35 35 34 31 28 26 25 23 21 19 18 16 16 16 15 15 14 13 13 13 14 15 15 15 16 17 18 18 19 20
2 3 3 1 3 3 3 2 3 2 4 7 7 4 3 4 4 4 5 5 5 5 6 7 6 5 6 7 8 8 9 8 8 8 7 7 7 8 9 12 15 18 20 22 23 25 25 24 23 24 26 28 30 32 33 34 35 34 31 28 27 26 24 23 21 20 18 17 16 16 16 15 14 13 13 13 13 14 14 14 15 17 18 18 18 19
2 3 3 4 5 4 4 4 2 2 3 4 5 4 5 7 7 5 5 6 4 4 6 6 5 5 6 7 9 10 9 8 8 9 8 7 7 8 10 14 17 19 21 24 24 25 26 27 28 28 29 31 33 33 34 35 35 33 30 28 27 26 24 23 22 20 18 17 16 16 15 14 13 13 12 12 13 14 14 13 14 16 17 17 17 18
2 3 3 3 2 2 3 3 0 3 5 5 5 7 8 9 7 6 6 6 5 5 6 6 6 7 7 8 9 9 9 9 9 9 9 8 7 8 12 17 20 22 23 24 24 27 29 30 31 32 32 34 34 34 35 35 35 33 31 29 28 27 25 23 22 20 18 17 16 15 14 13 13 12 12 12 13 13 13 13 14 16 18 17 16 16
3 4 3 3 1 3 4 4 4 2 3 6 7 10 12 10 8 7 7 6 7 8 8 7 7 7 8 10 9 8 9 10 9 9 9 8 8 12 16 19 20 22 23 23 23 26 30 32 33 33 34 34 33 33 35 36 35 34 32 31 29 27 25 24 22 20 18 17 16 14 13 13 12 12 12 12 13 13 13 12 12 14 17 17 15 14
6 8 7 5 4 6 6 7 7 6 6 7 8 9 10 8 8 9 10 10 10 10 8 8 8 8 8 11 12 12 10 10 11 10 9 9 14 18 19 20 21 22 23 23 23 25 29 31 31 31 33 33 33 33 35 36 36 36 34 32 29 27 25 23 22 20 19 17 15 13 12 12 11 11 11 12 12 13 14 14 13 12 13 14 12 11
Wind_Direction
112 133 179 207 201 201 203 199 190 154 124 130 134 139 182 221 261 246 244 286 279 194 273 249 241 269 270 303 345 344 55 73 75 72 66 56 53 41 46 46 37 45 27 19 31 37 41 47 53 60 65 70 74 77 81 86 88 89 94 98 96 98 105 107 106 106 103 99 95 92 89 86 82 81 81 77 74 73 72 71 70 68 68 68 69 69
94 168 218 225 205 199 198 175 145 123 114 114 140 183 242 226 250 262 246 308 334 185 269 348 290 275 259 253 341 357 69 54 41 77 76 61 62 42 47 43 33 38 17 25 31 33 40 46 52 59 64 68 70 73 78 82 84 88 93 94 93 97 102 103 103 104 101 98 98 95 91 89 85 83 82 79 76 75 75 72 70 69 68 67 68 67
93 215 238 231 176 119 94 144 160 167 156 142 136 171 259 234 248 288 303 336 3 181 264 5 326 276 256 77 23 35 70 56 24 60 66 61 65 40 40 39 34 33 17 21 24 26 34 41 49 58 62 66 71 74 80 84 86 90 91 92 95 98 100 100 101 103 102 101 102 99 95 93 88 83 82 81 78 77 75 73 71 69 68 66 66 64
184 244 244 209 145 131 89 115 144 148 171 187 159 175 245 223 188 269 285 321 2 93 258 354 315 280 221 75 43 47 72 74 46 54 57 53 69 55 50 46 41 40 24 18 16 20 30 39 47 54 59 67 74 78 82 86 89 91 93 95 98 100 101 102 103 104 105 104 102 100 97 95 91 86 84 83 79 77 75 73 71 69 68 68 67 65
218 243 204 111 131 157 139 113 141 148 209 232 199 203 231 210 207 237 275 306 349 26 18 28 324 295 260 117 84 61 85 71 35 56 63 44 56 63 57 49 42 42 28 24 17 12 26 37 46 54 62 70 75 79 82 87 91 94 97 100 102 104 105 106 107 107 108 107 105 103 100 97 92 86 83 80 76 75 75 73 73 72 72 71 70 69
250 229 131 97 104 145 142 163 182 167 189 272 225 213 221 206 202 226 33 31 15 357 354 44 349 296 317 320 170 146 95 57 23 53 63 36 43 53 49 39 30 35 31 34 32 22 32 44 54 62 68 73 76 80 85 91 95 98 101 103 106 108 109 110 111 113 114 112 111 108 102 96 90 83 78 77 76 77 77 76 76 76 75 74 73 72
248 209 138 132 134 144 156 205 219 166 146 275 238 206 208 182 164 167 129 106 114 253 318 49 172 261 308 316 210 162 119 54 37 50 29 8 58 59 57 33 18 19 23 31 36 38 46 53 62 67 72 77 82 87 92 96 99 101 103 104 106 108 110 112 114 118 118 114 110 105 99 95 92 88 84 83 83 82 82 81 79 77 76 75 75 74
173 136 124 145 139 149 176 218 214 161 138 225 228 154 158 165 171 171 149 153 203 246 323 357 156 239 287 279 298 89 136 27 9 285 270 210 148 90 84 29 30 3 2 29 25 37 52 62 70 74 79 85 91 95 98 100 101 103 104 105 106 107 109 111 113 115 114 110 106 102 100 97 96 95 93 91 89 87 86 84 80 78 76 74 73 72
140 159 181 165 150 182 205 216 186 162 155 234 179 117 134 152 156 145 133 154 201 44 298 296 167 234 272 267 338 19 291 292 254 232 230 203 197 179 164 210 205 255 260 172 89 50 64 74 82 86 91 96 99 100 101 102 103 105 106 106 107 107 108 110 110 109 108 107 106 104 103 101 99 99 98 95 93 90 88 84 81 79 76 74 72 70
119 204 193 154 157 204 213 256 185 172 189 183 121 93 78 78 88 98 113 129 73 70 243 247 192 203 275 279 326 46 270 254 220 220 217 193 199 195 184 198 191 202 217 176 130 102 91 95 98 102 105 104 105 105 105 106 107 107 108 109 108 107 108 109 109 108 106 106 106 105 106 104 103 101 99 97 92 88 86 83 80 77 75 73 71 69
324 293 181 139 168 189 145 61 109 153 139 134 110 77 60 44 44 51 63 91 69 290 251 247 215 182 261 276 232 188 230 207 176 193 203 184 196 202 199 196 189 190 189 181 127 113 113 114 115 115 114 112 111 111 110 110 110 111 111 110 109 108 109 110 109 109 107 107 106 106 106 105 103 101 97 93 87 84 82 79 76 74 72 70 68 66
349 348 239 175 149 131 102 65 37 52 91 110 98 92 96 8 13 29 358 41 100 254 258 282 326 177 214 258 235 220 241 201 172 182 183 182 195 200 197 194 191 192 185 183 155 134 132 128 127 124 120 119 119 117 114 114 114 114 114 113 112 110 111 111 110 109 108 106 105 105 103 101 98 96 91 86 81 77 75 73 71 69 67 65 63 61
283 239 245 136 152 138 114 83 40 25 42 84 99 104 109 354 11 9 315 326 208 249 269 339 351 214 227 249 234 214 221 215 202 194 179 178 187 193 193 191 189 189 184 184 182 169 157 147 142 136 130 127 124 121 120 119 118 118 117 117 115 113 112 111 110 108 106 104 103 101 99 96 93 89 84 81 78 74 70 68 65 62 60 58 55 53
256 280 229 143 216 180 145 137 130 167 173 159 149 127 125 101 70 277 273 286 260 259 280 313 311 242 257 262 233 203 210 225 229 245 199 183 184 186 185 182 184 188 188 190 189 189 181 169 160 150 141 136 132 129 127 125 124 122 122 120 117 115 114 112 110 107 104 102 100 97 95 92 89 85 81 78 75 72 68 64 61 59 56 53 50 47
176 264 205 166 200 185 171 171 157 148 150 179 166 128 141 148 152 216 219 211 246 279 312 305 237 193 203 266 267 237 278 298 266 259 234 190 181 171 169 173 181 189 192 197 196 199 195 181 170 162 154 147 141 138 135 132 130 127 125 123 120 119 117 114 111 107 104 101 99 95 92 88 85 82 79 76 73 69 65 61 58 56 53 50 47 43
157 253 244 191 296 165 172 191 126 117 122 206 144 110 150 179 151 163 184 172 185 292 296 244 224 220 193 251 316 325 315 328 320 244 189 180 170 155 169 184 186 196 200 199 197 203 199 187 180 175 166 158 151 146 142 138 136 132 129 127 124 122 120 116 112 108 106 104 100 95 90 86 83 80 78 75 70 65 61 57 53 51 48 45 40 36
141 269 295 23 11 119 163 193 114 119 166 150 140 169 209 178 119 118 188 102 83 284 270 201 236 291 335 277 315 19 350 328 340 204 181 176 168 168 187 194 195 203 202 200 198 197 195 191 189 184 175 167 160 154 149 144 141 138 135 132 128 125 123 119 115 112 110 107 102 96 92 88 84 80 76 72 67 61 56 52 48 43 39 35 30 25
150 174 328 66 105 358 214 145 69 21 119 124 177 205 184 121 88 102 178 23 49 246 274 258 227 263 195 249 314 18 287 266 238 205 183 179 181 188 198 199 203 208 204 202 198 193 195 194 193 189 182 175 167 160 155 150 146 143 139 136 133 130 127 123 120 117 114 109 104 99 95 89 83 78 72 67 62 55 49 45 40 34 29 26 21 15
131 124 326 27 144 291 351 95 81 9 38 117 183 184 113 129 129 96 142 198 214 246 287 287 243 239 196 204 208 207 225 221 201 198 194 194 195 197 200 202 207 209 204 201 194 193 197 196 195 191 185 180 173 166 159 154 150 147 143 140 137 133 130 128 126 122 117 112 107 103 97 90 82 76 69 62 54 45 40 36 31 25 20 17 13 8
110 135 249 306 233 254 9 81 156 208 10 34 60 54 41 130 150 147 148 159 180 233 290 288 282 257 222 201 183 198 211 193 177 192 204 204 201 198 199 198 203 205 200 195 192 194 195 195 197 193 187 183 177 170 164 159 156 152 149 146 143 139 136 134 132 127 122 118 112 107 101 93 84 74 64 54 43 33 30 27 20 15 12 8 3 1
86 137 186 262 329 181 175 203 186 181 157 109 108 128 161 87 101 165 150 111 134 175 228 275 284 267 241 195 186 202 211 186 181 192 203 207 203 202 203 201 203 202 196 193 190 190 191 194 197 195 191 186 178 173 169 165 163 160 158 155 150 146 144 141 138 133 130 126 121 114 106 99 87 73 56 42 31 23 20 15 9 7 4 359 356 354
129 134 151 154 181 187 224 261 213 198 174 156 172 186 179 150 119 140 240 192 114 174 189 198 271 271 248 182 189 205 213 196 192 194 199 204 202 203 207 204 202 198 193 195 190 185 187 192 197 196 192 187 182 178 175 172 170 168 165 162 157 154 151 148 145 143 141 138 134 125 115 107 91 70 44 25 17 12 10 6 2 359 356 352 350 349
135 106 120 166 207 208 253 299 247 227 143 118 170 188 161 145 134 153 214 223 141 198 157 114 273 280 266 175 208 224 225 207 198 196 199 207 205 204 204 195 194 199 198 196 187 185 189 194 197 196 192 189 186 182 179 178 177 174 171 168 165 162 159 156 155 155 155 153 149 143 134 120 104 70 19 9 7 4 2 358 354 352 348 347 345 343
116 107 124 193 304 320 324 336 348 4 87 107 274 172 146 161 150 163 192 165 156 199 136 93 261 266 274 216 251 254 254 236 211 204 200 205 206 201 198 197 200 201 196 189 184 187 192 195 196 195 194 193 189 186 184 183 181 178 176 175 173 170 167 165 167 167 168 169 167 164 168 176 181 239 351 1 1 357 353 350 347 345 343 342 340 338
171 142 143 150 109 344 339 336 319 331 10 189 214 167 165 130 99 89 113 103 209 198 146 167 253 252 239 290 305 316 281 247 235 219 204 205 204 198 200 207 207 198 187 184 182 184 190 194 196 196 196 194 192 191 190 187 186 185 183 182 179 177 176 176 178 179 183 189 192 197 204 208 211 278 348 355 354 349 346 344 342 340 338 337 335 334
163 165 166 167 184 201 197 194 219 238 195 195 179 179 196 157 144 152 125 140 228 187 144 204 246 261 333 281 278 302 272 244 243 229 222 225 213 205 208 210 205 196 192 190 185 184 191 195 197 197 197 197 196 195 193 192 192 190 190 188 186 187 187 187 190 193 199 206 211 211 210 207 220 312 344 347 346 343 341 339 338 337 335 333 332 332
134 185 199 187 202 204 187 198 203 148 132 183 202 191 197 189 177 163 124 178 205 157 193 230 233 249 266 235 237 259 239 232 240 220 222 235 226 219 221 216 209 203 200 194 186 186 191 195 197 197 198 200 200 199 198 197 196 195 195 194 193 195 197 198 200 203 208 213 211 207 205 207 243 316 337 340 339 338 336 335 334 332 331 330 330 329
113 214 217 197 220 213 167 182 189 148 154 188 193 202 206 193 174 171 192 209 162 152 239 236 160 214 246 211 197 236 231 223 238 228 220 229 229 224 222 215 210 207 202 193 190 194 194 195 197 198 201 203 203 202 202 201 200 199 200 200 198 200 203 204 205 207 208 207 203 201 204 214 260 314 328 330 331 331 331 330 328 327 326 325 325 325
124 218 216 185 227 221 138 153 175 157 167 182 187 211 210 185 174 185 212 217 173 196 247 230 136 212 244 179 182 217 214 207 223 221 210 212 220 217 210 210 210 207 202 197 197 198 195 194 196 199 202 203 202 203 203 203 202 202 203 203 202 203 205 206 207 206 203 199 199 201 206 224 269 303 313 317 321 325 325 323 322 321 320 320 321 322
144 214 190 170 227 236 133 149 171 151 154 203 221 228 213 187 186 195 215 220 202 225 254 251 178 238 239 167 196 217 203 201 209 189 179 190 212 214 208 213 215 210 204 201 200 200 198 201 202 202 203 203 202 202 203 203 203 204 204 203 203 203 203 204 204 202 198 197 200 205 213 236 272 292 302 308 314 319 320 318 317 317 317 318 319 320
194 185 106 133 220 276 64 101 112 120 150 234 258 251 231 200 202 213 222 219 204 235 250 247 254 261 240 180 209 226 186 182 207 212 202 208 217 214 209 214 216 212 207 201 199 200 205 208 206 205 205 205 204 203 202 203 204 204 203 202 202 202 201 201 201 199 198 201 204 210 223 248 271 288 297 304 312 317 317 315 315 315 316 317 317 318
182 162 60 101 174 257 160 118 102 71 69 276 267 258 244 220 213 218 214 199 199 223 238 234 245 256 240 175 206 225 196 195 227 232 227 226 218 207 210 215 212 208 204 202 205 206 208 210 206 206 207 207 206 204 204 204 203 201 200 200 200 199 198 199 200 199 201 204 209 216 231 253 271 285 296 304 310 313 313 313 313 314 314 315 315 316
155 148 118 134 173 254 130 133 126 82 45 268 257 250 239 227 223 222 207 204 205 204 212 227 239 245 209 166 199 228 220 220 236 237 231 234 223 206 215 219 214 212 207 207 212 209 209 212 210 210 210 208 207 206 206 205 201 199 199 198 198 198 198 199 199 200 203 206 212 224 237 257 273 285 295 303 307 309 311 311 311 312 313 313 315 317
155 152 161 173 171 261 98 115 117 143 227 248 253 218 210 209 213 218 217 209 200 195 210 229 238 198 161 178 203 224 228 225 233 234 223 221 215 208 218 220 215 218 219 217 217 212 214 217 216 215 215 213 211 209 206 204 201 200 199 198 198 198 198 199 199 200 205 208 217 229 243 260 276 288 294 300 303 305 307 308 309 312 313 313 316 317
169 160 165 164 143 142 118 115 157 214 229 250 354 19 212 191 189 207 226 218 202 205 220 231 232 209 205 215 219 226 239 244 239 233 223 214 204 197 213 227 221 219 220 217 212 210 212 212 212 214 215 213 212 207 202 200 199 199 197 196 197 198 198 199 200 201 206 213 222 234 249 266 278 287 291 296 300 303 304 306 308 311 312 313 316 317
166 161 162 157 145 127 133 177 212 242 273 294 332 343 18 89 107 147 267 251 216 206 210 220 233 236 233 237 235 217 231 273 288 244 223 220 211 198 208 226 226 222 225 223 221 222 220 216 215 215 212 208 205 200 198 197 197 196 195 194 196 197 197 198 200 203 209 217 227 239 255 270 278 283 289 295 299 301 302 305 307 310 311 312 314 316
166 168 177 191 187 167 178 212 235 310 301 264 248 214 165 144 140 156 231 254 231 200 191 205 228 240 239 237 225 119 105 5 321 273 223 216 217 210 214 228 231 234 243 247 250 250 245 235 226 217 209 200 196 195 196 195 195 194 193 192 194 195 196 199 203 208 214 221 231 244 258 268 274 281 289 294 297 299 301 303 307 309 311 312 313 315
180 183 187 201 206 185 187 224 241 258 254 243 221 177 160 153 147 139 160 270 250 185 181 195 216 233 237 215 157 116 89 38 299 272 230 216 221 214 222 240 242 240 246 249 248 246 238 225 214 206 200 193 192 195 195 195 195 193 192 191 193 194 197 203 208 212 217 224 234 245 257 267 274 282 289 293 294 296 298 302 305 308 310 311 311 313
69 105 179 204 218 201 200 219 221 226 243 227 185 195 218 156 130 102 53 289 248 188 185 192 209 226 226 189 157 130 105 143 261 265 239 215 215 199 201 229 236 236 242 246 241 231 215 200 191 189 190 190 192 195 196 196 195 193 192 193 194 197 202 207 212 216 220 227 236 246 258 268 276 283 288 290 291 293 297 300 303 306 308 309 310 311
101 82 174 210 222 216 217 228 230 235 249 172 157 165 198 162 107 83 310 273 241 212 196 183 203 221 204 162 148 141 158 197 234 251 226 193 189 190 197 208 217 222 228 229 224 216 203 190 182 181 187 194 197 197 196 195 193 193 194 195 196 201 208 212 215 218 222 229 238 250 262 271 277 283 286 287 289 292 295 299 301 304 306 307 308 309
145 161 188 213 224 226 228 236 252 247 216 181 166 159 162 126 80 105 244 240 197 210 206 185 202 212 169 148 157 181 208 211 202 204 179 149 149 188 209 215 215 218 222 218 209 202 195 192 191 191 196 200 200 198 196 193 192 194 196 196 200 208 213 215 215 219 224 233 243 254 264 272 277 281 283 285 288 290 292 297 300 303 305 306 308 309
160 147 210 215 217 228 234 241 270 265 193 140 146 165 158 142 159 229 230 200 169 193 202 201 208 192 160 171 188 206 223 208 147 143 191 177 175 196 205 202 198 205 211 209 204 201 196 194 195 198 202 203 202 200 197 194 194 196 197 200 207 213 215 214 217 222 228 236 246 256 264 271 275 278 280 283 285 288 292 296 299 301 304 306 307 308
166 154 205 217 192 173 229 230 242 260 174 128 123 112 228 198 203 199 185 186 185 178 179 201 215 193 176 191 208 222 234 215 177 216 235 228 232 232 195 187 191 198 199 197 202 204 200 197 199 202 205 205 203 201 198 196 197 198 200 206 213 214 213 215 220 225 230 238 248 256 263 267 271 274 277 280 283 286 292 297 298 300 303 305 306 308
186 167 195 226 193 152 198 225 227 207 167 155 146 159 208 204 179 148 154 188 214 186 174 195 217 205 190 196 212 223 232 236 231 233 234 236 239 233 215 205 203 204 205 205 208 208 203 202 204 204 204 205 204 201 200 200 200 201 205 212 214 212 212 217 221 225 231 239 248 254 259 263 267 270 273 277 282 286 291 296 298 299 302 304 306 308
221 183 174 199 208 177 188 215 244 79 179 187 177 173 196 204 179 148 154 170 199 197 179 188 215 210 197 203 212 213 219 230 232 226 220 228 232 222 220 219 212 211 214 214 213 210 206 206 207 204 203 205 205 203 203 204 204 206 211 215 214 212 215 218 220 225 232 240 247 251 256 259 263 267 271 275 280 285 290 294 296 299 302 305 306 308
252 157 138 143 244 254 238 192 153 80 207 210 221 210 192 209 201 153 159 193 209 193 181 194 213 209 196 197 203 208 219 224 226 228 224 227 233 227 224 227 224 220 219 216 214 211 208 208 208 206 205 207 207 206 207 207 208 212 216 215 212 213 216 218 221 227 233 239 245 248 253 257 261 265 269 274 279 283 288 292 296 299 302 305 307 308
285 139 138 217 231 243 267 208 160 181 213 213 231 258 267 258 238 177 180 219 216 189 195 210 211 191 179 183 192 212 225 220 218 230 231 224 230 230 225 227 227 223 219 218 218 213 207 204 207 209 209 210 211 212 211 211 212 216 217 215 212 213 216 218 222 229 233 237 242 246 251 256 259 262 266 270 275 279 284 290 295 298 301 305 308 308
253 142 163 231 224 204 231 237 216 279 275 238 233 249 259 254 239 203 208 233 223 186 198 208 191 164 166 186 199 213 227 222 212 223 231 225 225 226 223 226 228 226 225 224 220 213 206 205 208 210 211 214 215 215 214 214 214 214 214 213 213 213 215 219 224 229 233 236 240 245 251 255 258 262 266 269 273 278 284 289 291 294 298 303 306 306
145 159 176 201 218 240 252 240 66 359 316 279 240 231 237 242 237 223 226 232 225 212 213 214 206 189 188 202 201 202 223 230 219 219 228 228 224 223 224 227 228 228 228 226 221 215 211 211 212 213 215 218 218 216 215 215 213 212 212 212 212 213 215 220 224 227 231 235 239 243 248 253 258 264 269 272 275 280 284 288 294 297 299 302 306 306
151 199 186 137 198 251 237 196 161 159 259 250 229 225 230 230 226 231 238 234 228 225 218 217 223 215 214 221 208 191 214 235 228 219 226 231 228 226 227 227 229 231 232 229 223 218 216 217 217 217 219 221 220 217 215 214 211 210 211 212 212 214 216 219 222 225 228 233 237 241 245 251 257 264 271 276 281 285 287 289 294 297 297 299 301 299
185 208 195 170 213 230 209 189 184 188 219 237 229 224 226 217 204 217 233 234 234 232 217 208 220 227 229 232 219 202 211 235 231 219 222 236 236 233 231 230 229 232 233 229 221 218 219 220 220 220 221 222 220 217 216 214 211 210 210 211 212 214 217 219 221 223 228 233 236 239 244 250 257 264 271 279 286 292 296 297 295 292 293 296 297 291